[[{"header":{"parameterUnit":"m.s-1","parameterCategory":1,"la1":30.2991,"la2":30.254,"lo1":-89.0895,"lo2":-89.0444,"dy":0.0017,"dx":0.0017,"nx":28,"ny":28,"refTime":"2023-10-10T03:00:00:Z","depth":0,"parameterNumber":2,"parameterNumberName":"U-component_of_WINDS"},"data":[0,0,0,0,0,0,0,0,0,0,0,0,0,0,0,0,0,0,0,0,0,0,0,0,0,0,0,0,0,0,0,0,0,0,0,0,0,0,0,0,0,0,0,0,0,0,0,0,0,0,0,0,0,0,0,0,0,0,-1.1604,-1.1604,0,-1.1549,-1.1549,-1.1548,-1.1499,-1.1498,-1.1498,-1.1497,-1.1439,-1.1438,-1.1437,0,0,0,0,0,0,0,0,0,0,0,0,0,-1.1667,-1.1667,-1.1604,-1.1604,-1.1603,-1.1549,-1.1549,-1.1548,-1.1499,-1.1498,-1.1497,-1.1497,-1.144,-1.1438,-1.1437,0,0,0,0,0,0,0,0,0,0,0,0,0,-1.1629,-1.1666,-1.1605,-1.1572,-1.1569,-1.155,-1.1549,-1.1548,-1.1499,-1.1498,-1.1497,-1.1496,-1.144,-1.1439,-1.1437,-1.1445,0,0,-1.1433,-1.1432,0,0,0,0,0,0,0,0,-1.1631,-1.1627,-1.1578,-1.1574,-1.157,-1.153,-1.155,-1.1513,-1.1499,-1.1525,-1.1497,-1.1496,-1.147,-1.1466,-1.1458,-1.1443,-1.144,-1.1432,-1.1431,-1.1431,-1.143,0,0,0,0,0,0,0,-1.1634,-1.1629,-1.1583,-1.1577,-1.1573,-1.156,-1.1554,-1.1543,-1.1503,-1.1523,-1.1519,-1.1514,-1.1468,-1.1459,-1.1456,-1.1439,-1.1432,-1.1431,-1.143,-1.143,-1.1431,-1.1431,0,0,0,0,0,0,-1.1642,-1.1631,-1.1584,-1.1581,-1.1599,-1.156,-1.1553,-1.1544,-1.1503,-1.1496,-1.1514,-1.1511,-1.1462,-1.1458,-1.1454,-1.1462,-1.1431,-1.1429,-1.1429,-1.143,-1.1431,-1.1432,0,0,0,0,0,0,-1.1643,-1.1638,-1.1587,-1.1605,-1.1598,-1.156,-1.155,-1.1543,-1.1534,-1.1497,-1.1489,-1.1513,-1.1461,-1.1456,-1.1448,-1.1459,-1.1429,-1.1427,-1.1429,-1.143,-1.1431,-1.1478,0,0,0,0,0,0,-1.1645,-1.1639,-1.1641,-1.1606,-1.1597,-1.1582,-1.1551,-1.1543,-1.1532,-1.1528,-1.1493,-1.1486,-1.146,-1.1451,-1.1447,-1.1457,-1.1426,-1.1427,-1.1429,-1.1431,-1.1475,-1.1481,-1.1485,0,0,0,0,0,-1.1648,-1.1656,-1.1642,-1.1636,-1.1599,-1.1583,-1.1578,-1.1548,-1.1533,-1.1536,-1.1512,-1.1488,-1.1459,-1.1451,-1.1446,-1.1455,-1.1427,-1.1429,-1.1431,-1.1473,-1.148,-1.1485,0,0,0,0,0,0,-1.1692,-1.165,-1.1634,-1.1631,-1.1611,-1.1574,-1.1576,-1.1555,-1.1539,-1.1535,-1.1498,-1.1491,-1.1488,-1.1471,-1.1462,-1.1462,-1.144,-1.1441,-1.1473,-1.1479,-1.1484,-1.1489,-1.1425,0,0,0,0,0,-1.1702,-1.1693,-1.1656,-1.1657,-1.1648,-1.1614,-1.1606,-1.1585,-1.1562,-1.1553,-1.1529,-1.1508,-1.1494,-1.1486,-1.1471,-1.1473,-1.1465,-1.1477,-1.1482,-1.1486,-1.1488,-1.1489,-1.1495,-1.1439,-1.1439,-1.1438,0,0,-1.1722,-1.1698,-1.1693,-1.1665,-1.1647,-1.1639,-1.1607,-1.1598,-1.1592,-1.1552,-1.1544,-1.1525,-1.15,-1.1497,-1.1495,-1.1483,-1.1502,-1.1489,-1.1493,-1.1492,-1.1492,-1.1497,-1.1502,-1.144,-1.144,-1.1439,0,0,-1.1753,-1.1733,-1.1733,-1.1716,-1.169,-1.1668,-1.1668,-1.1635,-1.1621,-1.1613,-1.1583,-1.1575,-1.1552,-1.1535,-1.1524,-1.1552,-1.153,-1.1548,-1.1575,-1.1576,-1.1581,-1.1585,-1.1596,-1.16,-1.155,-1.155,-1.155,0,-1.178,-1.1766,-1.1735,-1.1729,-1.1718,-1.1683,-1.1682,-1.1667,-1.1637,-1.1631,-1.1618,-1.159,-1.157,-1.1564,-1.1571,-1.1563,-1.1562,-1.1552,-1.1583,-1.1586,-1.1589,-1.1599,-1.1604,-1.1552,-1.1552,-1.1552,-1.1552,0,-1.1802,-1.1792,-1.1795,-1.1768,-1.1758,-1.1755,-1.1724,-1.1717,-1.1697,-1.1677,-1.167,-1.1645,-1.1626,-1.1623,-1.1603,-1.1615,-1.1608,-1.159,-1.1566,-1.1598,-1.1607,-1.161,-1.1556,-1.1555,-1.1554,-1.1554,0,0,-1.1858,-1.1816,-1.1818,-1.1806,-1.1775,-1.1768,-1.1764,-1.1746,-1.1741,-1.1722,-1.1718,-1.1701,-1.1684,-1.1672,-1.165,-1.1652,-1.1677,-1.1633,-1.1631,-1.1642,-1.1691,-1.1705,-1.171,-1.1663,-1.1663,-1.1664,-1.1693,0,-1.1885,-1.1875,-1.1848,-1.1848,-1.1839,-1.1807,-1.1804,-1.1785,-1.1767,-1.1757,-1.1736,-1.1725,-1.1703,-1.1696,-1.1696,-1.1674,-1.1686,-1.1672,-1.1659,-1.1659,-1.1667,-1.1714,-1.1729,-1.1758,-1.1696,-1.1697,-1.1697,0,-1.1914,-1.1899,-1.1897,-1.1869,-1.1865,-1.1862,-1.1845,-1.1836,-1.1815,-1.1801,-1.1789,-1.1765,-1.176,-1.1739,-1.1732,-1.1723,-1.1716,-1.1705,-1.1705,-1.1703,-1.168,-1.1714,-1.1766,-1.1771,-1.1702,-1.1702,-1.1701,0,-1.1956,-1.1935,-1.1932,-1.1923,-1.189,-1.189,-1.1876,-1.1854,-1.1845,-1.183,-1.1825,-1.1809,-1.18,-1.1789,-1.1762,-1.1749,-1.1759,-1.1735,-1.1748,-1.1749,-1.1751,-1.1751,-1.1804,-1.1747,-1.1746,-1.1746,-1.1746,0,-1.1989,-1.199,-1.1951,-1.1949,-1.195,-1.192,-1.1921,-1.1904,-1.1885,-1.188,-1.1851,-1.1847,-1.1812,-1.1804,-1.1783,-1.1781,-1.1777,-1.1767,-1.1761,-1.177,-1.1771,-1.1765,-1.1762,-1.1748,-1.1747,-1.1747,-1.1747,0,-1.2036,-1.201,-1.2005,-1.1975,-1.1968,-1.197,-1.1944,-1.1941,-1.1922,-1.1916,-1.1913,-1.1882,-1.1872,-1.1845,-1.1826,-1.1813,-1.1817,-1.1806,-1.1824,-1.1821,-1.1836,-1.1835,-1.1886,-1.1892,-1.1831,-1.1831,-1.1832,0,-1.2059,-1.2059,-1.2029,-1.2024,-1.2012,-1.2004,-1.1996,-1.1966,-1.1959,-1.1937,-1.1937,-1.1925,-1.1913,-1.1898,-1.1874,-1.1861,-1.185,-1.1869,-1.1848,-1.1857,-1.1851,-1.1852,-1.1852,-1.1873,-1.1874,-1.1875,-1.1875,0,-1.2102,-1.209,-1.2079,-1.2065,-1.2057,-1.2044,-1.2029,-1.2027,-1.1994,-1.1988,-1.1977,-1.1968,-1.1951,-1.1939,-1.1923,-1.1908,-1.1887,-1.1883,-1.1885,-1.1893,-1.1904,-1.19,-1.1837,-1.1881,-1.1881,-1.188,-1.188,-1.188,-1.2138,-1.2137,-1.2117,-1.2107,-1.2093,-1.2081,-1.2078,-1.2059,-1.205,-1.2034,-1.2017,-1.2009,-1.199,-1.1966,-1.1953,-1.1947,-1.1935,-1.1939,-1.194,-1.1941,-1.1945,-1.1906,-1.1944,-1.1943,-1.1943,-1.1943,-1.1943,0,-1.218,-1.2166,-1.2158,-1.2139,-1.2132,-1.2113,-1.2097,-1.2092,-1.2085,-1.2069,-1.2059,-1.2048,-1.2037,-1.2013,-1.2,-1.2,-1.199,-1.1998,-1.1997,-1.1995,-1.1956,-1.1955,-1.2006,-1.2006,-1.2006,-1.2006,-1.2006,-1.2006,-1.2202,-1.22,-1.2186,-1.2178,-1.2164,-1.2156,-1.2149,-1.2138,-1.2125,-1.2114,-1.2105,-1.2091,-1.2072,-1.2058,-1.2048,-1.2041,-1.2038,-1.2049,-1.204,-1.2003,-1.1997,-1.1992,-1.1991,-1.2049,-1.2049,-1.2079,-1.208,-1.208]},{"header":{"parameterUnit":"m.s-1","parameterCategory":1,"la1":30.2991,"la2":30.254,"lo1":-89.0895,"lo2":-89.0444,"dy":0.0017,"dx":0.0017,"nx":28,"ny":28,"refTime":"2023-10-10T03:00:00:Z","depth":0,"parameterNumber":3,"parameterNumberName":"V-component_of_WINDS"},"data":[0,0,0,0,0,0,0,0,0,0,0,0,0,0,0,0,0,0,0,0,0,0,0,0,0,0,0,0,0,0,0,0,0,0,0,0,0,0,0,0,0,0,0,0,0,0,0,0,0,0,0,0,0,0,0,0,0,0,2.3211,2.3211,0,2.3168,2.3167,2.3167,2.3198,2.32,2.3201,2.3202,2.3152,2.315,2.3147,0,0,0,0,0,0,0,0,0,0,0,0,0,2.3316,2.3314,2.3211,2.3211,2.321,2.3168,2.3167,2.3167,2.3198,2.32,2.3201,2.3203,2.3153,2.315,2.3147,0,0,0,0,0,0,0,0,0,0,0,0,0,2.3271,2.3313,2.3211,2.3221,2.3221,2.3168,2.3167,2.3167,2.3198,2.32,2.3202,2.3204,2.3154,2.315,2.3147,2.308,0,0,2.3135,2.3133,0,0,0,0,0,0,0,0,2.3274,2.3267,2.322,2.322,2.322,2.3191,2.3186,2.3137,2.3197,2.3206,2.3202,2.3205,2.3163,2.3159,2.3146,2.3078,2.3076,2.3134,2.3132,2.313,2.3129,0,0,0,0,0,0,0,2.3277,2.3269,2.3194,2.3219,2.3219,2.3225,2.3221,2.3177,2.3173,2.3206,2.3208,2.3203,2.3164,2.3149,2.3145,2.3075,2.3134,2.3131,2.3128,2.3127,2.295,2.2948,0,0,0,0,0,0,2.328,2.3272,2.3195,2.3193,2.3253,2.3222,2.3217,2.3198,2.3174,2.3172,2.3201,2.3204,2.3155,2.3149,2.3143,2.3064,2.313,2.3126,2.3124,2.2953,2.295,2.2947,0,0,0,0,0,0,2.3282,2.3272,2.3197,2.3233,2.3224,2.3218,2.3196,2.3196,2.3182,2.317,2.3169,2.3187,2.3157,2.3149,2.3096,2.3062,2.3125,2.3121,2.2955,2.2952,2.2949,2.2904,0,0,0,0,0,0,2.3285,2.3273,2.3249,2.3232,2.3222,2.3152,2.3194,2.3194,2.3176,2.318,2.3157,2.3156,2.3158,2.3102,2.3092,2.3058,2.3118,2.2958,2.2954,2.295,2.2909,2.29,2.2892,0,0,0,0,0,2.3288,2.3237,2.3247,2.3238,2.3191,2.315,2.3144,2.3149,2.3173,2.3148,2.314,2.3156,2.3068,2.3096,2.3085,2.305,2.296,2.2955,2.295,2.2912,2.2901,2.2892,0,0,0,0,0,0,2.3247,2.3235,2.3246,2.3188,2.317,2.3155,2.3124,2.3137,2.311,2.3115,2.312,2.3115,2.306,2.305,2.3081,2.2984,2.3018,2.301,2.2993,2.2982,2.2974,2.2977,2.3115,0,0,0,0,0,2.3232,2.3201,2.3191,2.3141,2.3131,2.3129,2.3111,2.3117,2.3097,2.3089,2.3078,2.3057,2.3025,2.3003,2.2973,2.2908,2.2903,2.2878,2.287,2.2863,2.2856,2.282,2.2809,2.293,2.293,2.293,0,0,2.3199,2.3189,2.3168,2.3132,2.3119,2.3085,2.3122,2.3085,2.3059,2.3083,2.3033,2.3024,2.3001,2.2942,2.2916,2.2932,2.2821,2.2856,2.2851,2.2847,2.2814,2.2802,2.2792,2.2927,2.2927,2.2928,0,0,2.3122,2.3112,2.3069,2.3055,2.3035,2.3034,2.3024,2.3007,2.3003,2.2953,2.297,2.2939,2.2883,2.2867,2.285,2.2768,2.2781,2.2758,2.2714,2.2679,2.267,2.2661,2.2631,2.262,2.2751,2.2751,2.2751,0,2.3083,2.3035,2.3044,2.3006,2.2989,2.3012,2.2967,2.2953,2.2923,2.291,2.293,2.2861,2.2846,2.2784,2.2764,2.275,2.2738,2.276,2.2671,2.2662,2.2654,2.2626,2.2615,2.2748,2.2749,2.2749,2.2749,0,2.2988,2.2954,2.2922,2.2895,2.2874,2.2833,2.2835,2.2813,2.282,2.2817,2.2766,2.275,2.2717,2.2703,2.2709,2.264,2.2651,2.2671,2.2704,2.264,2.2613,2.2602,2.2744,2.2745,2.2746,2.2747,0,0,2.2883,2.2863,2.2851,2.2839,2.2819,2.2792,2.2752,2.2721,2.2702,2.2681,2.2646,2.2599,2.2617,2.2599,2.2603,2.2573,2.2508,2.2596,2.2596,2.258,2.2431,2.2416,2.2404,2.2518,2.2516,2.2514,2.2433,0,2.2805,2.2736,2.2743,2.2677,2.2646,2.2667,2.2631,2.2614,2.261,2.2582,2.2576,2.2543,2.257,2.2559,2.253,2.2522,2.2478,2.2528,2.2484,2.2482,2.2488,2.239,2.2374,2.2298,2.2423,2.2421,2.242,0,2.2704,2.2681,2.2613,2.2598,2.2585,2.2554,2.2526,2.2499,2.248,2.2479,2.246,2.247,2.2427,2.2463,2.2404,2.2438,2.2421,2.2414,2.2411,2.2406,2.2446,2.2381,2.2274,2.2262,2.2403,2.2405,2.2406,0,2.2633,2.2586,2.2539,2.2528,2.251,2.2487,2.2478,2.2462,2.2443,2.2419,2.2406,2.2377,2.236,2.2336,2.2337,2.2364,2.2277,2.2314,2.2274,2.2274,2.2254,2.2255,2.2141,2.2244,2.2244,2.2245,2.2245,0,2.2544,2.2501,2.2507,2.2478,2.243,2.2438,2.239,2.2384,2.2369,2.2338,2.2354,2.2324,2.2328,2.2297,2.2298,2.2249,2.2241,2.2238,2.2238,2.2236,2.2236,2.2223,2.2228,2.2242,2.2242,2.2243,2.2243,0,2.2457,2.2459,2.2409,2.2397,2.2393,2.2358,2.2347,2.2319,2.2317,2.2277,2.2268,2.2264,2.2229,2.2228,2.2187,2.2188,2.2128,2.2134,2.2135,2.2136,2.2096,2.21,2.197,2.1953,2.2067,2.2066,2.2065,0,2.24,2.2367,2.2352,2.2334,2.2324,2.2293,2.2275,2.2282,2.2262,2.2238,2.2212,2.218,2.2154,2.2096,2.2089,2.2058,2.2063,2.202,2.2058,2.2057,2.2061,2.2063,2.206,2.2012,2.201,2.2009,2.2009,0,2.2298,2.2301,2.2275,2.2249,2.2227,2.2206,2.2188,2.2171,2.2175,2.2152,2.2117,2.2097,2.2057,2.2024,2.1994,2.1983,2.1996,2.1997,2.1986,2.1983,2.1984,2.1982,2.2113,2.1999,2.2,2.2001,2.2001,2.2002,2.2223,2.2195,2.2181,2.2151,2.2138,2.212,2.2094,2.2089,2.2061,2.203,2.2035,2.1996,2.1978,2.194,2.1927,2.1895,2.191,2.1894,2.189,2.1886,2.1882,2.199,2.189,2.189,2.189,2.1891,2.1891,0,2.2121,2.2113,2.2086,2.206,2.2037,2.2054,2.2034,2.2012,2.1979,2.1961,2.1936,2.1896,2.1864,2.1855,2.1823,2.18,2.1805,2.1791,2.1793,2.179,2.187,2.1883,2.1788,2.1788,2.1788,2.1788,2.1788,2.1788,2.2065,2.202,2.2021,2.1968,2.196,2.1924,2.1911,2.1894,2.1881,2.1836,2.1811,2.1805,2.1791,2.1759,2.173,2.1728,2.1715,2.1698,2.1698,2.1774,2.1784,2.1794,2.1805,2.1696,2.1696,2.162,2.162,2.1619]}]]